Weather History for Somerset, KY

Change the Weather History Date:

Tuesday, February 26, 2013

  Actual Average Record
Temperature  
Mean Temperature 46 °F -  
Max Temperature 53 °F 52 °F 75 °F (1998)
Min Temperature 39 °F 32 °F 21 °F (2002)
Degree Days  
Heating Degree Days 19    
Moisture  
Dew Point 38 °F    
Average Humidity 69    
Maximum Humidity 94    
Minimum Humidity 46    
Precipitation  
Precipitation 0.13 in - - ()
Sea Level Pressure  
Sea Level Pressure 29.56 in    
Wind  
Wind Speed 10 mph (South)    
Max Wind Speed 25 mph    
Max Gust Speed 37 mph    
Visibility 10 miles    
Events Rain , Thunderstorm    
Averages and records for this station are not official NWS values.
T = Trace of Precipitation, MM = Missing Value Source: NWS Daily Summary

Daily Weather History Graph

Daily Weather History Graph

Search for Another Location

Airport:

Trip Planner

Search our weather history database for the weather conditions in past years. The results will help you decide how hot, cold, wet, or windy it might be!

Date:

Astronomy

Feb. 26, 2013 Rise Set
Actual Time 7:13 AM EST 6:29 PM EST
Civil Twilight 6:46 AM EST 6:56 PM EST
Nautical Twilight 6:16 AM EST 7:26 PM EST
Astronomical Twilight 5:46 AM EST 7:56 PM EST
Moon 7:42 PM EST (2/26) 7:17 AM EST (2/26)
Length of Visible Light 12h 09m
Length of Day
11h 16m
Full, 99% of the Moon is Illuminated
Feb 26
Full
Mar 4
Last Quarter
Mar 11
New
Mar 19
First Quarter
Mar 27
Full

Hourly Weather History & Observations

Time (EST) Temp. Windchill Dew Point Humidity Pressure Visibility Wind Dir Wind Speed Gust Speed Precip Events Conditions
12:15 AM 46.4 °F 42.4 °F 26.6 °F 46% 29.78 in 10.0 mi East 8.1 mph - N/A   Overcast
12:35 AM 46.4 °F 41.9 °F 26.6 °F 46% 29.76 in 10.0 mi East 9.2 mph - N/A   Overcast
12:55 AM 46.4 °F 42.9 °F 26.6 °F 46% 29.75 in 10.0 mi East 6.9 mph - N/A   Overcast
1:15 AM 46.4 °F 42.4 °F 26.6 °F 46% 29.72 in 10.0 mi East 8.1 mph - N/A   Overcast
1:35 AM 46.4 °F 41.9 °F 28.4 °F 50% 29.72 in 10.0 mi East 9.2 mph - N/A   Overcast
1:55 AM 48.2 °F - 28.4 °F 46% 29.70 in 10.0 mi East 9.2 mph - N/A   Overcast
2:15 AM 48.2 °F - 30.2 °F 50% 29.69 in 10.0 mi ENE 6.9 mph - N/A   Overcast
2:35 AM 46.4 °F 41.5 °F 30.2 °F 53% 29.69 in 10.0 mi East 10.4 mph - N/A   Overcast
2:55 AM 46.4 °F 42.4 °F 30.2 °F 53% 29.66 in 10.0 mi East 8.1 mph - N/A   Overcast
3:15 AM 46.4 °F 42.4 °F 30.2 °F 53% 29.65 in 10.0 mi ESE 8.1 mph - N/A   Overcast
3:35 AM 48.2 °F - 32.0 °F 54% 29.60 in 10.0 mi East 9.2 mph - N/A   Overcast
3:55 AM 50.0 °F - 33.8 °F 54% 29.60 in 10.0 mi ESE 6.9 mph - N/A   Mostly Cloudy
4:15 AM 50.0 °F - 33.8 °F 54% 29.60 in 10.0 mi SE 11.5 mph 17.3 mph N/A   Mostly Cloudy
4:35 AM 50.0 °F - 33.8 °F 54% 29.60 in 10.0 mi SE 9.2 mph 17.3 mph N/A Rain Light Rain
4:55 AM 48.2 °F - 39.2 °F 71% 29.57 in 10.0 mi SE 13.8 mph 19.6 mph N/A Rain Light Rain
5:15 AM 48.2 °F - 41.0 °F 76% 29.53 in 10.0 mi ESE 16.1 mph 25.3 mph N/A Rain Light Rain
5:35 AM 48.2 °F - 42.8 °F 82% 29.55 in 10.0 mi SE 13.8 mph 23.0 mph N/A Rain Light Rain
5:55 AM 48.2 °F - 42.8 °F 82% 29.53 in 10.0 mi SE 12.7 mph 20.7 mph 0.01 in Rain Light Rain
6:15 AM 48.2 °F - 42.8 °F 82% 29.54 in 10.0 mi ESE 4.6 mph 16.1 mph 0.01 in Rain Light Rain
6:35 AM 46.4 °F 42.4 °F 42.8 °F 87% 29.52 in 10.0 mi ESE 8.1 mph - 0.01 in Rain Light Rain
6:55 AM 46.4 °F 41.9 °F 42.8 °F 87% 29.51 in 10.0 mi ESE 9.2 mph 16.1 mph 0.01 in   Overcast
7:15 AM 46.4 °F 41.9 °F 42.8 °F 87% 29.51 in 10.0 mi SE 9.2 mph 17.3 mph N/A   Mostly Cloudy
7:35 AM 46.4 °F 41.1 °F 42.8 °F 87% 29.49 in 10.0 mi SE 11.5 mph - N/A   Overcast
7:55 AM 48.2 °F - 42.8 °F 82% 29.49 in 10.0 mi SE 9.2 mph 20.7 mph N/A   Mostly Cloudy
8:15 AM 50.0 °F - 42.8 °F 76% 29.50 in 10.0 mi South 3.5 mph - N/A   Overcast
8:35 AM 50.0 °F - 42.8 °F 76% 29.50 in 10.0 mi South 4.6 mph - N/A   Overcast
8:55 AM 51.8 °F - 42.8 °F 71% 29.52 in 10.0 mi South 6.9 mph - N/A   Overcast
9:15 AM 51.8 °F - 42.8 °F 71% 29.50 in 10.0 mi SE 8.1 mph - N/A   Overcast
9:35 AM 51.8 °F - 42.8 °F 71% 29.50 in 10.0 mi SSE 10.4 mph 16.1 mph N/A   Overcast
10:15 AM 51.8 °F - 42.8 °F 71% 29.48 in 10.0 mi SSE 13.8 mph 18.4 mph N/A   Overcast
10:35 AM 51.8 °F - 42.8 °F 71% 29.48 in 10.0 mi SE 13.8 mph 19.6 mph N/A   Overcast
10:55 AM 51.8 °F - 42.8 °F 71% 29.48 in 10.0 mi SSE 9.2 mph 18.4 mph N/A   Overcast
11:15 AM 53.6 °F - 44.6 °F 72% 29.47 in 10.0 mi SE 9.2 mph - N/A   Overcast
11:35 AM 53.6 °F - 42.8 °F 67% 29.46 in 10.0 mi SSE 11.5 mph 19.6 mph N/A   Overcast
11:55 AM 53.6 °F - 42.8 °F 67% 29.47 in 10.0 mi SSE 10.4 mph 16.1 mph N/A   Overcast
12:15 PM 53.6 °F - 44.6 °F 72% 29.47 in 10.0 mi SSE 11.5 mph 17.3 mph N/A Rain Rain
12:35 PM 51.8 °F - 44.6 °F 76% 29.46 in 10.0 mi SSE 8.1 mph 16.1 mph N/A   Overcast
12:55 PM 51.8 °F - 44.6 °F 76% 29.45 in 10.0 mi SSE 9.2 mph - N/A   Overcast
1:15 PM 51.8 °F - 44.6 °F 76% 29.45 in 10.0 mi SSE 5.8 mph - N/A Rain Light Rain
1:35 PM 51.8 °F - 44.6 °F 76% 29.44 in 10.0 mi SSW 4.6 mph - N/A   Overcast
1:55 PM 50.0 °F - 44.6 °F 82% 29.44 in 4.0 mi SSW 11.5 mph 16.1 mph 0.04 in Rain Rain
2:15 PM 50.0 °F - 46.4 °F 87% 29.44 in 5.0 mi SSW 8.1 mph - 0.03 in Rain Rain
2:35 PM 50.0 °F - 48.2 °F 94% 29.43 in 5.0 mi SSW 6.9 mph - 0.06 in Rain Light Rain
2:55 PM 51.8 °F - 48.2 °F 88% 29.43 in 10.0 mi SSW 8.1 mph - 0.06 in   Overcast
3:15 PM 51.8 °F - 46.4 °F 82% 29.44 in 10.0 mi SW 6.9 mph 16.1 mph N/A   Overcast
3:35 PM 51.8 °F - 46.4 °F 82% 29.45 in 10.0 mi SW 11.5 mph 18.4 mph 0.01 in   Light Drizzle
3:55 PM 50.0 °F - 42.8 °F 76% 29.45 in 10.0 mi SW 13.8 mph 32.2 mph 0.01 in Rain Light Rain
4:15 PM 51.8 °F - 42.8 °F 71% 29.46 in 10.0 mi SW 13.8 mph 21.9 mph N/A   Overcast
4:35 PM 50.0 °F - 41.0 °F 71% 29.48 in 10.0 mi SW 25.3 mph 36.8 mph N/A   Overcast
4:55 PM 50.0 °F - 37.4 °F 62% 29.49 in 10.0 mi SW 20.7 mph 32.2 mph N/A   Mostly Cloudy
5:15 PM 48.2 °F - 37.4 °F 66% 29.52 in 10.0 mi West 19.6 mph 32.2 mph N/A Thunderstorm Mostly Cloudy
5:35 PM 46.4 °F 38.3 °F 35.6 °F 66% 29.53 in 10.0 mi WSW 23.0 mph 28.8 mph N/A   Overcast
5:55 PM 46.4 °F 40.4 °F 33.8 °F 62% 29.54 in 10.0 mi WSW 13.8 mph 26.5 mph N/A   Overcast
6:15 PM 46.4 °F 39.8 °F 33.8 °F 62% 29.55 in 10.0 mi SW 16.1 mph 19.6 mph N/A   Overcast
6:35 PM 44.6 °F 37.8 °F 32.0 °F 61% 29.56 in 10.0 mi WSW 15.0 mph 20.7 mph N/A   Overcast
6:55 PM 44.6 °F 37.4 °F 32.0 °F 61% 29.58 in 10.0 mi WSW 16.1 mph 20.7 mph N/A   Overcast
7:15 PM 44.6 °F 37.8 °F 32.0 °F 61% 29.58 in 10.0 mi SW 15.0 mph 20.7 mph N/A   Overcast
7:35 PM 44.6 °F 40.2 °F 32.0 °F 61% 29.59 in 10.0 mi SW 8.1 mph - N/A   Overcast
7:55 PM 44.6 °F 39.2 °F 32.0 °F 61% 29.60 in 10.0 mi SW 10.4 mph 16.1 mph N/A   Overcast
8:15 PM 44.6 °F 41.4 °F 32.0 °F 61% 29.60 in 10.0 mi SW 5.8 mph - N/A   Overcast
8:35 PM 44.6 °F 39.2 °F 32.0 °F 61% 29.61 in 10.0 mi SW 10.4 mph 17.3 mph N/A   Overcast
8:55 PM 44.6 °F 36.9 °F 32.0 °F 61% 29.62 in 10.0 mi WSW 18.4 mph 32.2 mph N/A   Light Drizzle
9:15 PM 42.8 °F 35.8 °F 33.8 °F 70% 29.63 in 10.0 mi WSW 13.8 mph 19.6 mph N/A   Light Drizzle
9:35 PM 42.8 °F 35.4 °F 33.8 °F 70% 29.63 in 10.0 mi WSW 15.0 mph 23.0 mph N/A   Light Drizzle
9:55 PM 42.8 °F 35.1 °F 33.8 °F 70% 29.63 in 10.0 mi WSW 16.1 mph 21.9 mph N/A   Light Drizzle
10:15 PM 42.8 °F 34.8 °F 33.8 °F 70% 29.65 in 10.0 mi WSW 17.3 mph 25.3 mph N/A   Drizzle
10:35 PM 41.0 °F 34.7 °F 33.8 °F 76% 29.65 in 10.0 mi SW 10.4 mph - N/A   Light Drizzle
10:55 PM 39.2 °F 31.2 °F 35.6 °F 87% 29.65 in 7.0 mi West 13.8 mph 20.7 mph N/A Rain Light Rain
11:15 PM 39.2 °F 31.2 °F 33.8 °F 81% 29.66 in 10.0 mi WSW 13.8 mph 20.7 mph N/A   Light Drizzle
11:35 PM 39.2 °F 31.2 °F 33.8 °F 81% 29.66 in 10.0 mi WSW 13.8 mph 21.9 mph N/A   Light Drizzle
11:55 PM 39.2 °F 32.5 °F 33.8 °F 81% 29.67 in 10.0 mi WSW 10.4 mph 19.6 mph N/A   Overcast